When you browse on this site, cookies collect data to enhance your experience and personalize the content and advertising you see.
Visit our Privacy Policy to learn more. By continuing to use the site, you agree to this use of cookies and data.
  • In Germany
  • List of Countries
  • For 7 days
  • Water Temperature
  • Weather Map
  • Weather Widgets
  • user-avatar
    Login

    Hourly Weather Belmopan

    Today, 19 November, Tuesday

    Time Temperature Precipitation Wind Pressure Humidity
    00:00 +20°C° 0 mm 1 mps 753 mmHg 90%
    01:00 +19°C° 0 mm 1 mps 753 mmHg 92%
    02:00 +19°C° 0 mm 1 mps 753 mmHg 93%
    03:00 +19°C° 0 mm 1 mps 753 mmHg 94%
    04:00 +18°C° 0 mm 1 mps 753 mmHg 95%
    05:00 +18°C° 0 mm 1 mps 753 mmHg 95%
    06:00 +16°C° 0 mm 0 mps 754 mmHg 95%
    07:00 +18°C° 0 mm 0 mps 754 mmHg 84%
    08:00 +21°C° 0 mm 0 mps 755 mmHg 72%
    09:00 +24°C° 0 mm 0 mps 755 mmHg 60%
    10:00 +25°C° 0 mm 0 mps 755 mmHg 55%
    11:00 +27°C° 0 mm 0 mps 754 mmHg 50%
    12:00 +29°C° 0 mm 0 mps 753 mmHg 45%
    13:00 +30°C° 0 mm 1 mps 753 mmHg 46%
    14:00 +30°C° 0 mm 1 mps 753 mmHg 46%
    15:00 +30°C° 0 mm 1 mps 752 mmHg 47%
    16:00 +27°C° 0 mm 1 mps 752 mmHg 59%
    17:00 +25°C° 0 mm 1 mps 753 mmHg 70%
    18:00 +23°C° 0 mm 1 mps 753 mmHg 82%
    19:00 +22°C° 0 mm 1 mps 754 mmHg 84%
    20:00 +21°C° 0 mm 1 mps 754 mmHg 87%
    21:00 +19°C° 0 mm 0 mps 755 mmHg 90%
    22:00 +19°C° 0 mm 0 mps 755 mmHg 91%
    23:00 +18°C° 0 mm 0 mps 754 mmHg 91%

    Tomorrow, 20 November, Wednesday

    Time Temperature Precipitation Wind Pressure Humidity
    00:00 +18°C° 0 mm 0 mps 754 mmHg 92%
    01:00 +18°C° 0 mm 0 mps 754 mmHg 93%
    02:00 +18°C° 0 mm 0 mps 754 mmHg 93%
    03:00 +17°C° 0 mm 0 mps 754 mmHg 94%
    04:00 +17°C° 0 mm 0 mps 754 mmHg 95%
    05:00 +17°C° 0 mm 0 mps 754 mmHg 96%
    06:00 +16°C° 0 mm 0 mps 754 mmHg 97%
    07:00 +19°C° 0 mm 0 mps 755 mmHg 86%
    08:00 +22°C° 0 mm 0 mps 755 mmHg 76%
    09:00 +26°C° 0 mm 1 mps 756 mmHg 65%
    10:00 +28°C° 0 mm 1 mps 755 mmHg 59%
    11:00 +29°C° 0 mm 1 mps 755 mmHg 54%
    12:00 +30°C° 0 mm 1 mps 754 mmHg 48%
    13:00 +30°C° 0 mm 1 mps 753 mmHg 49%
    14:00 +30°C° 0 mm 1 mps 753 mmHg 51%
    15:00 +30°C° 0 mm 2 mps 752 mmHg 52%
    16:00 +28°C° 0 mm 1 mps 752 mmHg 63%
    17:00 +25°C° 0 mm 1 mps 753 mmHg 74%
    18:00 +23°C° 0 mm 1 mps 753 mmHg 85%
    19:00 +23°C° 0 mm 1 mps 753 mmHg 87%
    20:00 +20°C° 0 mm 0 mps 754 mmHg 89%
    21:00 +20°C° 0 mm 0 mps 754 mmHg 91%
    22:00 +20°C° 0.1 mm 0 mps 754 mmHg 91%
    23:00 +20°C° 0.1 mm 0 mps 754 mmHg 91%

    Day after tomorrow, 21 November, Thursday

    Time Temperature Precipitation Wind Pressure Humidity
    00:00 +21°C° 0.1 mm 0 mps 754 mmHg 92%
    01:00 +21°C° 0.1 mm 0 mps 753 mmHg 93%
    02:00 +21°C° 0.1 mm 0 mps 753 mmHg 94%
    03:00 +21°C° 0.1 mm 0 mps 753 mmHg 95%
    04:00 +21°C° 0.1 mm 0 mps 753 mmHg 96%
    05:00 +20°C° 0.1 mm 0 mps 753 mmHg 97%
    06:00 +20°C° 0.1 mm 0 mps 753 mmHg 98%
    07:00 +21°C° 0.1 mm 0 mps 754 mmHg 97%
    08:00 +22°C° 0.1 mm 0 mps 754 mmHg 95%
    09:00 +23°C° 0.1 mm 0 mps 754 mmHg 93%
    10:00 +24°C° 0.1 mm 0 mps 754 mmHg 91%
    11:00 +24°C° 0.1 mm 0 mps 753 mmHg 89%
    12:00 +27°C° 0.1 mm 1 mps 753 mmHg 87%
    13:00 +27°C° 0.4 mm 1 mps 752 mmHg 87%
    14:00 +27°C° 0.4 mm 1 mps 752 mmHg 88%
    15:00 +27°C° 0.4 mm 1 mps 751 mmHg 89%
    16:00 +26°C° 0.1 mm 1 mps 751 mmHg 92%
    17:00 +25°C° 0.1 mm 1 mps 752 mmHg 94%
    18:00 +24°C° 0.1 mm 1 mps 752 mmHg 97%
    19:00 +24°C° 0 mm 1 mps 752 mmHg 97%
    20:00 +22°C° 0 mm 0 mps 753 mmHg 98%
    21:00 +21°C° 0 mm 0 mps 753 mmHg 98%
    22:00 +21°C° 0 mm 0 mps 753 mmHg 98%
    23:00 +21°C° 0 mm 0 mps 753 mmHg 97%

    22 November, Friday

    Time Temperature Precipitation Wind Pressure Humidity
    00:00 +21°C° 0 mm 0 mps 753 mmHg 97%
    01:00 +21°C° 0 mm 0 mps 752 mmHg 96%
    02:00 +21°C° 0 mm 0 mps 752 mmHg 96%
    03:00 +21°C° 0 mm 0 mps 752 mmHg 95%
    04:00 +21°C° 0 mm 0 mps 752 mmHg 96%
    05:00 +20°C° 0 mm 0 mps 752 mmHg 97%
    06:00 +20°C° 0 mm 0 mps 752 mmHg 97%
    07:00 +22°C° 0 mm 0 mps 753 mmHg 88%
    08:00 +25°C° 0 mm 0 mps 753 mmHg 79%
    09:00 +27°C° 0 mm 0 mps 753 mmHg 70%
    10:00 +30°C° 0 mm 1 mps 753 mmHg 63%
    11:00 +32°C° 0 mm 1 mps 752 mmHg 56%
    12:00 +33°C° 0 mm 1 mps 752 mmHg 49%
    13:00 +34°C° 0 mm 2 mps 751 mmHg 50%
    14:00 +34°C° 0 mm 2 mps 750 mmHg 51%
    15:00 +32°C° 0 mm 2 mps 750 mmHg 53%
    16:00 +30°C° 0 mm 2 mps 750 mmHg 65%
    17:00 +28°C° 0 mm 1 mps 750 mmHg 77%
    18:00 +25°C° 0 mm 1 mps 751 mmHg 89%
    19:00 +25°C° 0 mm 1 mps 751 mmHg 91%
    20:00 +22°C° 0 mm 0 mps 752 mmHg 93%
    21:00 +21°C° 0 mm 0 mps 752 mmHg 96%
    22:00 +21°C° 0 mm 0 mps 752 mmHg 96%
    23:00 +21°C° 0 mm 0 mps 752 mmHg 95%

    23 November, Saturday

    Time Temperature Precipitation Wind Pressure Humidity
    00:00 +21°C° 0 mm 0 mps 752 mmHg 95%
    01:00 +21°C° 0 mm 0 mps 752 mmHg 95%
    02:00 +21°C° 0 mm 0 mps 751 mmHg 96%
    03:00 +21°C° 0 mm 0 mps 751 mmHg 96%
    04:00 +21°C° 0 mm 0 mps 751 mmHg 95%
    05:00 +22°C° 0 mm 0 mps 752 mmHg 95%
    06:00 +22°C° 0 mm 0 mps 752 mmHg 94%
    07:00 +23°C° 0 mm 0 mps 753 mmHg 89%
    08:00 +25°C° 0 mm 0 mps 753 mmHg 83%
    09:00 +29°C° 0 mm 1 mps 754 mmHg 78%
    10:00 +30°C° 0.2 mm 1 mps 753 mmHg 73%
    11:00 +31°C° 0.2 mm 1 mps 753 mmHg 68%
    12:00 +33°C° 0.2 mm 1 mps 752 mmHg 63%
    13:00 +32°C° 0.8 mm 1 mps 752 mmHg 71%
    14:00 +30°C° 0.8 mm 1 mps 751 mmHg 80%
    15:00 +29°C° 0.8 mm 1 mps 751 mmHg 88%
    16:00 +28°C° 0.5 mm 1 mps 751 mmHg 91%
    17:00 +27°C° 0.5 mm 1 mps 751 mmHg 94%
    18:00 +24°C° 0.5 mm 0 mps 752 mmHg 97%
    19:00 +23°C° 0.1 mm 0 mps 752 mmHg 98%
    20:00 +23°C° 0.1 mm 0 mps 753 mmHg 98%
    21:00 +22°C° 0.1 mm 0 mps 753 mmHg 98%
    22:00 +22°C° 0 mm 0 mps 753 mmHg 98%
    23:00 +22°C° 0 mm 0 mps 753 mmHg 99%

    24 November, Sunday

    Time Temperature Precipitation Wind Pressure Humidity
    00:00 +22°C° 0 mm 0 mps 753 mmHg 99%
    01:00 +22°C° 0 mm 0 mps 753 mmHg 99%
    02:00 +22°C° 0 mm 0 mps 752 mmHg 99%
    03:00 +22°C° 0 mm 0 mps 752 mmHg 99%
    04:00 +21°C° 0 mm 0 mps 752 mmHg 99%
    05:00 +21°C° 0 mm 0 mps 753 mmHg 99%
    06:00 +21°C° 0 mm 0 mps 753 mmHg 99%
    07:00 +22°C° 0 mm 0 mps 753 mmHg 96%
    08:00 +25°C° 0 mm 1 mps 754 mmHg 92%
    09:00 +27°C° 0 mm 1 mps 754 mmHg 89%
    10:00 +28°C° 0.1 mm 1 mps 754 mmHg 78%
    11:00 +30°C° 0.1 mm 1 mps 753 mmHg 68%
    12:00 +32°C° 0.1 mm 1 mps 753 mmHg 57%
    13:00 +32°C° 0 mm 2 mps 752 mmHg 56%
    14:00 +32°C° 0 mm 2 mps 752 mmHg 55%
    15:00 +31°C° 0 mm 2 mps 751 mmHg 55%
    16:00 +29°C° 0 mm 2 mps 752 mmHg 63%
    17:00 +27°C° 0 mm 1 mps 752 mmHg 72%
    18:00 +25°C° 0 mm 1 mps 752 mmHg 81%
    19:00 +24°C° 0 mm 1 mps 753 mmHg 85%
    20:00 +24°C° 0 mm 1 mps 753 mmHg 88%
    21:00 +23°C° 0 mm 1 mps 753 mmHg 92%
    22:00 +21°C° 0 mm 0 mps 753 mmHg 93%
    23:00 +20°C° 0 mm 0 mps 753 mmHg 94%
    Show more